Weather History for Kankakee, IL

Change the Weather History Date:

Tuesday, November 19, 2013

  Actual Average Record
Temperature  
Mean Temperature 34 °F -  
Max Temperature 43 °F 51 °F 70 °F (1979)
Min Temperature 26 °F 33 °F 16 °F (1989)
Degree Days  
Heating Degree Days 30    
Moisture  
Dew Point 27 °F    
Average Humidity 78    
Maximum Humidity 91    
Minimum Humidity 58    
Precipitation  
Precipitation 0.00 in - - ()
Sea Level Pressure  
Sea Level Pressure 30.32 in    
Wind  
Wind Speed 4 mph (East)    
Max Wind Speed 8 mph    
Max Gust Speed -    
Visibility 10 miles    
Events      
Averages and records for this station are not official NWS values.
T = Trace of Precipitation, MM = Missing Value Source: NWS Daily Summary

Daily Weather History Graph

Daily Weather History Graph

Search for Another Location

Airport:

Trip Planner

Search our weather history database for the weather conditions in past years. The results will help you decide how hot, cold, wet, or windy it might be!

Date:

Astronomy

Nov. 19, 2013 Rise Set
Actual Time 6:44 AM CST 4:29 PM CST
Civil Twilight 6:14 AM CST 4:59 PM CST
Nautical Twilight 5:40 AM CST 5:32 PM CST
Astronomical Twilight 5:07 AM CST 6:05 PM CST
Moon 6:20 PM CST (11/19) 8:23 AM CST (11/19)
Length of Visible Light 10h 44m
Length of Day
9h 45m
Waning Gibbous, 96% of the Moon is Illuminated
Nov 19
Waning Gibbous
Nov 25
Last Quarter
Dec 2
New
Dec 9
First Quarter
Dec 17
Full

Hourly Weather History & Observations

Time (CST) Temp. Windchill Dew Point Humidity Pressure Visibility Wind Dir Wind Speed Gust Speed Precip Events Conditions
12:15 AM 31.6 °F 27.0 °F 25.5 °F 78% 30.27 in 10.0 mi NW 4.6 mph - N/A   Clear
12:35 AM 31.1 °F 27.7 °F 25.3 °F 79% 30.27 in 10.0 mi NW 3.5 mph - N/A   Clear
12:55 AM 30.9 °F 26.2 °F 25.2 °F 79% 30.27 in 10.0 mi NW 4.6 mph - N/A   Clear
1:15 AM 30.6 °F 27.1 °F 25.0 °F 80% 30.28 in 10.0 mi WNW 3.5 mph - N/A   Clear
1:35 AM 30.0 °F 26.5 °F 25.2 °F 82% 30.29 in 10.0 mi WNW 3.5 mph - N/A   Clear
1:55 AM 29.1 °F 25.4 °F 24.6 °F 83% 30.30 in 10.0 mi West 3.5 mph - N/A   Clear
2:15 AM 27.9 °F 24.0 °F 25.0 °F 89% 30.31 in 10.0 mi WNW 3.5 mph - N/A   Clear
2:35 AM 28.4 °F 24.6 °F 25.0 °F 87% 30.32 in 10.0 mi West 3.5 mph - N/A   Clear
2:55 AM 27.5 °F - 24.3 °F 88% 30.32 in 10.0 mi Calm Calm - N/A   Clear
3:15 AM 27.3 °F - 24.4 °F 89% 30.32 in 10.0 mi Calm Calm - N/A   Clear
3:35 AM 26.8 °F - 24.3 °F 90% 30.32 in 10.0 mi Calm Calm - N/A   Clear
3:55 AM 27.0 °F - 24.6 °F 91% 30.33 in 10.0 mi Calm Calm - N/A   Clear
4:15 AM 27.3 °F - 24.8 °F 90% 30.33 in 10.0 mi Calm Calm - N/A   Clear
4:35 AM 27.5 °F 23.6 °F 24.8 °F 90% 30.33 in 10.0 mi NNW 3.5 mph - N/A   Clear
4:55 AM 27.7 °F 23.8 °F 23.7 °F 85% 30.34 in 10.0 mi NNW 3.5 mph - N/A   Clear
5:15 AM 27.5 °F - 23.0 °F 83% 30.34 in 10.0 mi Calm Calm - N/A   Clear
5:35 AM 27.5 °F - 22.8 °F 83% 30.34 in 10.0 mi Calm Calm - N/A   Clear
5:55 AM 26.6 °F 22.6 °F 22.3 °F 84% 30.34 in 10.0 mi North 3.5 mph - N/A   Clear
6:15 AM 26.4 °F - 22.6 °F 86% 30.35 in 10.0 mi Calm Calm - N/A   Clear
6:35 AM 26.6 °F 22.6 °F 22.3 °F 84% 30.35 in 10.0 mi North 3.5 mph - N/A   Clear
6:55 AM 26.6 °F - 22.1 °F 83% 30.35 in 10.0 mi Calm Calm - N/A   Clear
7:15 AM 27.0 °F - 22.5 °F 83% 30.35 in 10.0 mi Calm Calm - N/A   Clear
7:35 AM 28.8 °F 25.0 °F 23.4 °F 80% 30.35 in 10.0 mi North 3.5 mph - N/A   Clear
7:55 AM 29.8 °F 26.3 °F 23.9 °F 79% 30.36 in 10.0 mi North 3.5 mph - N/A   Clear
8:15 AM 30.9 °F - 24.3 °F 76% 30.37 in 10.0 mi Calm Calm - N/A   Clear
8:35 AM 31.6 °F 28.3 °F 24.1 °F 74% 30.37 in 10.0 mi NNE 3.5 mph - N/A   Clear
8:55 AM 32.0 °F 27.5 °F 25.5 °F 77% 30.37 in 10.0 mi NE 4.6 mph - N/A   Clear
9:15 AM 32.9 °F 29.8 °F 26.4 °F 77% 30.37 in 10.0 mi ENE 3.5 mph - N/A   Clear
9:35 AM 33.8 °F 29.6 °F 27.1 °F 77% 30.38 in 10.0 mi NE 4.6 mph - N/A   Clear
9:55 AM 34.9 °F 30.8 °F 27.9 °F 76% 30.37 in 10.0 mi ENE 4.6 mph - N/A   Clear
10:15 AM 36.5 °F 31.8 °F 29.3 °F 75% 30.37 in 10.0 mi East 5.8 mph - N/A   Clear
10:35 AM 36.5 °F 32.7 °F 28.4 °F 72% 30.37 in 10.0 mi East 4.6 mph - N/A   Clear
10:55 AM 37.9 °F 32.1 °F 28.8 °F 70% 30.36 in 10.0 mi East 8.1 mph - N/A   Clear
11:15 AM 37.9 °F 32.7 °F 28.8 °F 70% 30.35 in 10.0 mi East 6.9 mph - N/A   Clear
11:35 AM 38.8 °F 34.6 °F 28.8 °F 67% 30.35 in 10.0 mi ESE 5.8 mph - N/A   Clear
11:55 AM 39.2 °F - 28.2 °F 65% 30.34 in 10.0 mi Calm Calm - N/A   Clear
12:13 PM 39.2 °F 37.0 °F 28.4 °F 65% 30.33 in 10.0 mi ESE 3.5 mph - N/A   Clear
12:15 PM 39.4 °F 35.2 °F 27.9 °F 63% 30.33 in 10.0 mi ESE 5.8 mph - N/A   Clear
12:35 PM 40.3 °F 38.2 °F 28.6 °F 63% 30.33 in 10.0 mi East 3.5 mph - N/A   Clear
12:55 PM 40.1 °F - 28.4 °F 63% 30.32 in 10.0 mi Calm Calm - N/A   Clear
1:15 PM 40.8 °F 37.8 °F 28.8 °F 62% 30.32 in 10.0 mi ESE 4.6 mph - N/A   Clear
1:35 PM 41.9 °F 36.9 °F 29.1 °F 61% 30.31 in 10.0 mi ESE 8.1 mph - N/A   Clear
1:55 PM 42.4 °F 38.8 °F 29.1 °F 59% 30.31 in 10.0 mi East 5.8 mph - N/A   Clear
2:15 PM 42.3 °F 37.9 °F 28.6 °F 58% 30.31 in 10.0 mi East 6.9 mph - N/A   Clear
2:35 PM 42.4 °F 38.1 °F 28.8 °F 58% 30.31 in 10.0 mi ESE 6.9 mph - N/A   Clear
2:55 PM 42.8 °F 38.6 °F 28.8 °F 58% 30.31 in 10.0 mi ESE 6.9 mph - N/A   Clear
3:15 PM 43.0 °F 38.8 °F 29.1 °F 58% 30.31 in 10.0 mi East 6.9 mph - N/A   Clear
3:35 PM 42.6 °F 39.0 °F 29.3 °F 59% 30.31 in 10.0 mi SE 5.8 mph - N/A   Clear
3:55 PM 42.1 °F 38.4 °F 29.8 °F 62% 30.31 in 10.0 mi SE 5.8 mph - N/A   Clear
4:15 PM 40.6 °F 37.5 °F 30.2 °F 66% 30.31 in 10.0 mi SE 4.6 mph - N/A   Clear
4:35 PM 39.2 °F 35.9 °F 30.0 °F 70% 30.31 in 10.0 mi SE 4.6 mph - N/A   Clear
4:55 PM 38.3 °F 35.9 °F 30.2 °F 73% 30.31 in 10.0 mi ESE 3.5 mph - N/A   Clear
5:15 PM 38.3 °F 35.9 °F 30.7 °F 74% 30.32 in 10.0 mi SE 3.5 mph - N/A   Clear
5:35 PM 37.0 °F 34.5 °F 30.7 °F 78% 30.32 in 10.0 mi SE 3.5 mph - N/A   Clear
5:55 PM 36.7 °F 34.1 °F 30.2 °F 77% 30.32 in 10.0 mi ESE 3.5 mph - N/A   Clear
6:15 PM 35.4 °F 30.5 °F 30.2 °F 81% 30.32 in 10.0 mi ESE 5.8 mph - N/A   Clear
6:35 PM 35.1 °F 30.1 °F 30.0 °F 82% 30.32 in 10.0 mi ESE 5.8 mph - N/A   Clear
6:55 PM 34.5 °F 29.4 °F 29.7 °F 82% 30.32 in 10.0 mi SE 5.8 mph - N/A   Clear
7:15 PM 33.8 °F 28.6 °F 29.3 °F 84% 30.32 in 10.0 mi SE 5.8 mph - N/A   Clear
7:35 PM 33.8 °F 27.7 °F 29.3 °F 84% 30.32 in 10.0 mi SE 6.9 mph - N/A   Clear
7:55 PM 33.8 °F 28.6 °F 29.3 °F 84% 30.32 in 10.0 mi SE 5.8 mph - N/A   Clear
8:15 PM 33.3 °F 27.9 °F 29.1 °F 85% 30.32 in 10.0 mi SE 5.8 mph - N/A   Clear
8:35 PM 32.2 °F 26.7 °F 28.9 °F 88% 30.32 in 10.0 mi ESE 5.8 mph - N/A   Clear
8:55 PM 32.2 °F 26.7 °F 28.6 °F 87% 30.31 in 10.0 mi ESE 5.8 mph - N/A   Clear
9:15 PM 32.2 °F 26.7 °F 28.6 °F 87% 30.31 in 10.0 mi ESE 5.8 mph - N/A   Clear
9:35 PM 32.0 °F 26.4 °F 28.4 °F 87% 30.31 in 10.0 mi ESE 5.8 mph - N/A   Clear
9:55 PM 31.3 °F 24.7 °F 28.2 °F 88% 30.30 in 10.0 mi ESE 6.9 mph - N/A   Clear
10:15 PM 31.8 °F 25.4 °F 28.4 °F 87% 30.30 in 10.0 mi ESE 6.9 mph - N/A   Clear
10:35 PM 31.1 °F 25.4 °F 28.2 °F 89% 30.30 in 10.0 mi ESE 5.8 mph - N/A   Clear
10:55 PM 31.5 °F 25.8 °F 28.2 °F 88% 30.30 in 10.0 mi ESE 5.8 mph - N/A   Clear
11:15 PM 32.0 °F 26.4 °F 28.2 °F 86% 30.29 in 10.0 mi ESE 5.8 mph - N/A   Clear
11:35 PM 32.0 °F 25.6 °F 28.4 °F 87% 30.30 in 10.0 mi SE 6.9 mph - N/A   Clear
11:55 PM 32.0 °F 25.6 °F 28.4 °F 87% 30.29 in 10.0 mi ESE 6.9 mph - N/A   Clear